Hourly Data Report for November 12, 2019

All times are specified in Local Standard Time (LST). Add 1 hour to adjust for Daylight Saving Time where and when it is observed.

HOPE A
BRITISH COLUMBIA
Current Station Operator: NAVCAN

49°22'06.000" N
121°29'53.000" W
39.00 m
1113542
71187
YHE

Download Data

Hourly Data (November 2019)
Hourly Data Report for November 12, 2019
TIME Temp Definition
°C
Dew Point Definition
°C
Rel Hum Definition
%
Wind Dir Definition
10's deg

Wind Spd Definition
km/h
Visibility Definition
km
Stn Press Definition
kPa
Hmdx Definition


Wind Chill Definition


Weather Definition


00:00 7.1 1.8 69 11 15 16.1 101.62     LegendNANA
01:00 6.1 3.2 81 8 5 16.1 101.70     Rain
02:00 5.4 4.2 92 10 9 16.1 101.60     Rain
03:00 5.0 4.1 94 10 13 12.9 101.45     Rain
04:00 4.9 4.3 96 9 5 11.3 101.39     Moderate Rain
05:00 4.8 4.4 97 11 11 14.5 101.35     Rain
06:00 4.8 4.4 97 11 9 9.7 101.38     Moderate Rain,Fog
07:00 4.8 4.5 98   0 12.9 101.38     Rain
08:00 5.0 4.7 98   0 16.1 101.42     Rain
09:00 5.2 4.9 98   0 16.1 101.46     Rain
10:00 5.4 5.1 98   0 16.1 101.48     Rain
11:00 5.9 5.5 97   0 16.1 101.54     Rain
12:00 6.9 6.3 96 LegendMM 4 16.1 101.51     Rain
13:00 6.6 6.3 98 LegendMM 4 16.1 101.53     LegendNANA
14:00 7.6 7.2 97 22 8 16.1 101.50     Rain
15:00 7.9 7.3 96 23 9 16.1 101.55     LegendNANA
16:00 8.0 7.4 96 22 9 12.9 101.58     Rain
17:00 8.0 7.4 96 21 9 16.1 101.61     Rain
18:00 8.2 7.6 96 23 9 9.7 101.64     Rain,Fog
19:00 8.1 7.7 97 23 5 6.4 101.65     Fog
20:00 8.0 7.7 98 23 8 2.0 101.67     Rain,Fog
21:00 7.8 7.7 99 26 4 2.8 101.66     Fog
22:00 7.8 7.7 99 23 5 2.4 101.71     Rain,Fog
23:00 7.6 7.5 99 LegendMM 4 1.6 101.75     Moderate Rain,Fog

Notes on Data Quality.

Legend

  • E = Estimated
  • M = Missing
  • NA = Not Available
Date modified: